Home   Weather   North Bay   Past weeks

Flag for Canada Past Weather in North Bay, Ontario, Canada — Yesterday and Last 2 Weeks

Now
27 °F

Overcast.


Feels Like: 18 °F
Forecast: 19 / 30 °F
Wind: 8 mph from Northwest

Location: North Bay

Current Time: Dec 3, 2016 at 7:09:06 pm

Latest Report: Dec 3, 2016 at 6:00 pm


Visibility: 15 mi

Pressure: 30.25 "Hg

Humidity: 80%

Dew Point: 21 °F

Location of North BayLocation

Past Weather in North Bay — Graph

°F

North Bay Temperature Yesterday

Maximum temperature yesterday: 34 °F (at 12:00 am)
Minimum temperature yesterday: 28 °F (at 11:00 pm)
Average temperature yesterday: 31 °F

High & Low Weather Summary for the Past Weeks

 TemperatureHumidityPressure
High57 °F (Nov 19, 2:00 am)100% (Nov 19, 10:00 am)30.42 "Hg (Nov 19, 10:00 am)
Low18 °F (Nov 23, 6:00 am)63% (Nov 19, 2:00 am)29.36 "Hg (Dec 1, 1:57 am)
Average30 °F90%29.92 "Hg
* Reported Nov 18 6:00 pm — Dec 3 6:00 pm, North Bay, Weather by CustomWeather, © 2016

Note: Actual official high and low records may vary slightly from our data, if they occured in-between our weather recording intervals... More about our weather records

Advertising

North Bay Weather History for the Previous 24 Hours

Scroll right to see more
 ConditionsComfort  
Time TempWeatherWind HumidityBarometerVisibility
6:00 pm
Sat, Dec 3
27 °FOvercast.8 mph80%30.25 "Hg15 mi
5:00 pm27 °FOvercast.6 mph86%30.24 "Hg15 mi
4:00 pm27 °FOvercast.7 mph86%30.21 "Hg15 mi
3:00 pm28 °FOvercast.9 mph80%30.19 "Hg30 mi
2:00 pm28 °FOvercast.13 mph80%30.17 "Hg30 mi
1:00 pm28 °FOvercast.13 mph86%30.17 "Hg30 mi
12:00 pm28 °FOvercast.10 mph80%30.18 "Hg30 mi
11:00 am28 °FOvercast.15 mph80%30.18 "Hg30 mi
10:00 am28 °FSnow flurries. Partly sunny.9 mph80%30.17 "Hg6 mi
9:00 am28 °FSnow flurries. Overcast.10 mph93%30.14 "Hg10 mi
8:00 am28 °FSnow flurries. Overcast.8 mph86%30.13 "Hg10 mi
7:00 am28 °FSnow flurries. Overcast.7 mph93%30.12 "Hg5 mi
6:00 am28 °FOvercast.5 mph93%30.11 "Hg9 mi
5:00 am28 °FOvercast.8 mph86%30.10 "Hg9 mi
4:02 am28 °FLight snow. Mostly cloudy.7 mph93%30.09 "Hg6 mi
3:00 am28 °FLight snow. Overcast.7 mph93%30.08 "Hg9 mi
2:58 am28 °FLight snow. Overcast.8 mph93%30.08 "Hg9 mi
2:00 am28 °FLight snow. Mostly cloudy.10 mph93%30.06 "Hg5 mi
1:49 am28 °FLight snow. Mostly cloudy.10 mph93%30.06 "Hg5 mi
1:00 am28 °FOvercast.10 mph93%30.04 "Hg9 mi
12:00 am28 °FLight snow. Overcast.10 mph93%30.03 "Hg7 mi
11:00 pm
Fri, Dec 2
28 °FLight snow. Overcast.10 mph93%30.01 "Hg9 mi
10:00 pm30 °FSnow flurries. Overcast.13 mph86%29.99 "Hg15 mi
9:00 pm30 °FSnow flurries. Overcast.13 mph86%29.97 "Hg10 mi
8:00 pm30 °FSnow flurries. Overcast.14 mph93%29.95 "Hg10 mi
7:00 pm30 °FSnow flurries. Mostly cloudy.14 mph93%29.93 "Hg10 mi
Weather by CustomWeather, © 2016

See weather overviewHow to use our weather pages